Weather History for Campeche, Mexico

Change the Weather History Date:

Saturday, July 20, 2013

  Actual Average Record
Temperature  
Mean Temperature 84 °F -  
Max Temperature 95 °F 90 °F 100 °F (2014)
Min Temperature 73 °F 72 °F 69 °F (2007)
Cooling Degree Days 19    
Growing Degree Days 34 (Base 50)    
Moisture  
Dew Point 76 °F    
Average Humidity 76    
Maximum Humidity 100    
Minimum Humidity 53    
Precipitation  
Precipitation 0.00 in - - ()
Sea Level Pressure  
Sea Level Pressure 29.92 in    
Wind  
Wind Speed 5 mph ()    
Max Wind Speed 17 mph    
Max Gust Speed 29 mph    
Visibility 6.3 miles    
Events      
Averages and records for this station are not official NWS values.
T = Trace of Precipitation, MM = Missing Value Source: Averaged Metar Reports

Daily Weather History Graph

Daily Weather History Graph

Search for Another Location

Airport:

Trip Planner

Search our weather history database for the weather conditions in past years. The results will help you decide how hot, cold, wet, or windy it might be!

Date:

Astronomy

Jul. 20, 2013 Rise Set
Actual Time 6:33 AM CDT 7:43 PM CDT
Civil Twilight 6:09 AM CDT 8:07 PM CDT
Nautical Twilight 5:41 AM CDT 8:35 PM CDT
Astronomical Twilight 5:11 AM CDT 9:04 PM CDT
Moon 5:48 PM CDT (7/20) 4:13 AM CDT (7/20)
Length of Visible Light 13h 57m
Length of Day
13h 09m
Waxing Gibbous, 94% of the Moon is Illuminated
Jul 20
Waxing Gibbous
Jul 22
Full
Jul 29
Last Quarter
Aug 6
New
Aug 14
First Quarter

Hourly Weather History & Observations

Time (CDT) Temp. Heat Index Dew Point Humidity Pressure Visibility Wind Dir Wind Speed Gust Speed Precip Events Conditions
12:50 AM 78 °F - 76 °F 92% 29.98 in 4 mi ESE 4.5 mph - -   Scattered Clouds
3:50 AM 75 °F - 74 °F 96% 29.94 in 4 mi Calm Calm - -   Partly Cloudy
5:03 AM 77.0 °F - 75.2 °F 94% 29.92 in 7.0 mi ESE 9.2 mph - N/A   Scattered Clouds
5:42 AM 77.0 °F - 75.2 °F 94% 29.91 in 7.0 mi East 6.9 mph - N/A   Scattered Clouds
6:40 AM 75.2 °F - 75.2 °F 100% 29.92 in 3.0 mi Calm Calm - N/A   Mostly Cloudy
6:50 AM 76 °F - 74 °F 94% 29.93 in 6 mi East 2.2 mph - -   Mostly Cloudy
7:45 AM 77.0 °F - 75.2 °F 94% 29.93 in 5.0 mi Calm Calm - N/A   Scattered Clouds
8:43 AM 78.8 °F - 75.2 °F 89% 29.94 in 6.0 mi ESE 6.9 mph - N/A   Scattered Clouds
9:46 AM 82.4 °F 89.5 °F 75.2 °F 79% 29.95 in 7.0 mi Calm Calm - N/A   Scattered Clouds
9:50 AM 84 °F - 79 °F 81% 29.94 in 6 mi ESE 8.9 mph - -   Clear
10:43 AM 86.0 °F 96.9 °F 77.0 °F 74% 29.94 in 7.0 mi ESE 11.5 mph - N/A   Scattered Clouds
10:50 AM 92 °F - 80 °F 60% 29.94 in 6 mi East 4.5 mph - -   Partly Cloudy
11:44 AM 87.8 °F 97.6 °F 75.2 °F 66% 29.94 in 7.0 mi ESE 11.5 mph - N/A   Scattered Clouds
12:44 PM 89.6 °F 102.2 °F 77.0 °F 66% 29.94 in 7.0 mi ESE 13.8 mph - N/A   Scattered Clouds
1:46 PM 89.6 °F 102.2 °F 77.0 °F 66% 29.92 in 7.0 mi SE 11.5 mph - N/A   Mostly Cloudy
2:43 PM 91.4 °F 102.5 °F 75.2 °F 59% 29.90 in 7.0 mi East 15.0 mph - N/A   Mostly Cloudy
3:40 PM 91.4 °F 100.1 °F 73.4 °F 55% 29.88 in 7.0 mi East 4.6 mph - N/A   Mostly Cloudy
3:54 PM 94 °F - 79 °F 53% 29.88 in 6 mi East 2.2 mph - -   Clear
4:45 PM 89.6 °F 96.2 °F 71.6 °F 55% 29.87 in 7.0 mi ENE 17.3 mph 28.8 mph N/A   Mostly Cloudy
5:54 PM 87.8 °F 93.8 °F 71.6 °F 58% 29.88 in 7.0 mi East 10.4 mph - N/A   Mostly Cloudy
6:48 PM 87.8 °F 97.6 °F 75.2 °F 66% 29.89 in 7.0 mi East 9.2 mph - N/A   Mostly Cloudy
6:50 PM 89 °F - 76 °F 58% 29.92 in 6 mi East 4.5 mph - -   Scattered Clouds
7:43 PM 86.0 °F 95.1 °F 75.2 °F 70% 29.88 in 7.0 mi East 10.4 mph - N/A   Mostly Cloudy
8:40 PM 84.2 °F 92.3 °F 75.2 °F 74% 29.90 in 7.0 mi Calm Calm - N/A   Mostly Cloudy
9:48 PM 81 °F - 76 °F 82% 29.92 in 4 mi ENE 2.2 mph - -   Clear
9:50 PM 80.6 °F 86.2 °F 75.2 °F 84% 29.92 in 7.0 mi Calm Calm - N/A   Partly Cloudy
10:40 PM 78.8 °F - 75.2 °F 89% 29.94 in 7.0 mi Calm Calm - N/A   Partly Cloudy
11:41 PM 78.8 °F - 75.2 °F 89% 29.96 in 7.0 mi Calm Calm - N/A   Mostly Cloudy